Terminal Aerodrome Forecast
Issued by NWS Tulsa, OK

Home | Current Version | Previous Version | Text Only | Print | Product List | Glossary On
Versions: 1 2 3 4 5 6 7 8 9 10 11 12
000
FTUS44 KTSA 160537
TAFTUL
TAF
KTUL 160537Z 1606/1706 18010KT P6SM SKC
     FM161600 18014G23KT P6SM SCT250
     FM162000 19015G25KT P6SM SCT150
     FM170200 17013KT P6SM BKN050
     FM170400 17012KT 5SM BR VCSH BKN025 OVC040=

USA.gov is the U.S. government's official web portal to all federal, state and local government web resources and services.